User: anonymous
Location: Unspecified
(0.0000°N, 0.0000°E)
Time: 06:14:00
(UTC+02:00)
Language:

H-2A R/B - Orbit

View from above orbital plane
View from above orbital plane
View from above satellite
View from above satellite

Ground track
Ground track

The orbit data is extracted from the following two-line orbital elements,

1 26899U 01038B   14205.23002708 -.00000100  00000-0  21629-3 0   198
2 26899 028.0288 132.5119 7134618 211.7062 353.6829 02.43728657110434
Epoch (UTC): 24 July 2014 05:31:14
Eccentricity: 0.7134618
inclination: 28.0288°
perigee height: 305 km
apogee height: 33586 km
right ascension of ascending node: 132.5119°
argument of perigee: 211.7062°
revolutions per day: 2.43728657
mean anomaly at epoch: 353.6829°
orbit number at epoch: 11043

The dashed part of the orbit path shows where the satellite is in the earth's shadow,  

DLR